Regional Weather Roundup
Issued by NWS Grand Forks, ND

Home | Current Version | Previous Version | Graphics & Text | Print | Product List | Glossary On
Versions: 1 2 3 4 5 6 7 8 9 10 11 12 13 14 15 16 17 18 19 20 21 22 23 24 25 26 27 28 29 30 31 32 33 34 35 36 37 38 39 40 41 42 43 44 45 46 47 48 49 50
000
ASUS43 KFGF 312031
RWRFGF
PRAIRIE TO PINES  WEATHER ROUNDUP
NATIONAL WEATHER SERVICE EASTERN NORTH DAKOTA/GRAND FORKS ND
200 PM CST SAT JAN 31 2015

 **SATELLITE DATA USED TO AUGMENT SKY COVER AT AUTOMATED STATIONS**
 *****  WEATHER ACROSS EASTERN NORTH DAKOTA  *****

CITY           SKY/WX    TMP DP  RH WIND       PRES   REMARKS
GRAND FORKS    CLOUDY     1  -9  62 N21       30.45F WCI -21
GRAND FRKS AFB MOSUNNY    0 -11  60 N22       30.45F WCI -23
GRAND FRKS NWS   N/A      1 N/A N/A N22         N/A  WCI -21
DEVILS LAKE    PTSUNNY    0 -13  55 NE18G24   30.38F WCI -22
FARGO          CLOUDY    13  -4  46 N18G25    30.34F WCI  -4
WAHPETON ARPT  PTCLDY    19   1  45 N18G24    30.27F WCI   4
$$

 ***** WEATHER ACROSS CENTRAL AND WESTERN NORTH DAKOTA  *****

CITY           SKY/WX    TMP DP  RH WIND       PRES   REMARKS
BISMARCK       MOSUNNY   15   4  61 NE20G26   30.28S WCI  -2
MINOT          LGT SNOW   3  -4  72 NE13      30.36F VSB 1   WCI -14
JAMESTOWN      CLOUDY     9  -4  55 NE20G26   30.30S WCI -10
MINOT AFB      CLOUDY     3  -2  78 NE15      30.38S BLWGSNOWWCI -15
GARRISON         N/A      6  -1  73 E17       30.30F WCI -13
WILLISTON      LGT SNOW   8   2  76 NE16      30.31S VSB 1   WCI -10
DICKINSON      LGT SNOW  12   7  80 NE17      30.15R WCI  -5
HETTINGER      CLOUDY    16  13  88 E18       30.11F FOG     WCI   0
$$

 *****  OTHER AIRPORT OBSERVATIONS IN OUR AREA  *****

CITY           SKY/WX    TMP DP  RH WIND       PRES   REMARKS
WALHALLA         N/A     -4 -11  71 N17       30.53S WCI -26
GRAFTON AIRPOR NOT AVBL
VALLEY CITY AR CLOUDY     7  -6  56 NE22      30.31S WCI -14
CANDO          MOCLDY    -4 -13  65 NE15G21   30.43S WCI -25
CAVALIER APRT  MOCLDY    -4 -11  71 N15       30.52S HAZE    WCI -25
GWINNER        CLEAR     16   1  53 NE24G30   30.26F WCI  -3
ROLLA          FAIR      -8 -13  77 NE17      30.41S WCI -31
 ***** THE ABOVE OBSERVATIONS ARE NON NWS ARE NOT QUALITY
       CONTROLLED AND MAY MIS-REPORT RAIN FOR SNOW...
$$

  *****  WEATHER ACROSS NORTHERN MINNESOTA  *****

CITY           SKY/WX    TMP DP  RH WIND       PRES   REMARKS
FLAG ISLAND    SUNNY     -2 -15  55 N13       30.42S WCI -21
WARROAD        SUNNY      1  -9  60 N10       30.42S WCI -14
ROSEAU         SUNNY      1  -9  60 N14       30.42S WCI -17
HALLOCK        SUNNY     -2 -13  60 N18       30.48S WCI -24
THF RVR FALLS  SUNNY      1  -8  66 N16       30.39S WCI -18
BAUDETTE       SUNNY      1  -9  62 N14       30.38S WCI -17
WASKISH        MOSUNNY    7  -2  66 N7        30.35R WCI  -5
CROOKSTON      SUNNY      5  -8  56 N16       30.43S WCI -14
STEPHEN NDAWN    N/A      0  -9  65 N17         N/A  WCI -21
GREENBUSH NDAW   N/A      1  -9  60 N13         N/A  WCI -16
$$
  *****  WEATHER ACROSS CENTRAL AND WEST MINNESOTA  *****

CITY           SKY/WX    TMP DP  RH WIND       PRES   REMARKS
FOSSTON        SUNNY      9  -2  61 N16       30.34S WCI  -9
BEMIDJI        SUNNY      8  -3  62 N12       30.30S WCI  -7
PARK RAPIDS    SUNNY     16  -7  35 N13       30.24F WCI   2
ELBOW LAKE     CLOUDY    22   0  38 N16       30.21F WCI   8
WADENA         PTSUNNY   19   0  42 N9G16     30.22S WCI   9
DETROIT LAKES  SUNNY     18   0  45 N9        30.27S WCI   6
MOORHEAD       SUNNY     14  -2  48 N16       30.34S WCI  -2
FERGUS FALLS   MOSUNNY   19   1  45 N12       30.27F WCI   7
MORRIS MN      PTSUNNY   28  14  54 NE14G21   30.18F WCI  17
STAPLES        SUNNY     21  -2  35 N10G16    30.22F WCI  10
$$
  *****  WEATHER ELSEWHERE ACROSS MINNESOTA  *****

CITY           SKY/WX    TMP DP  RH WIND       PRES   REMARKS
DULUTH         SUNNY     20   3  48 N9        30.21S WCI   9
INTRNTL FALLS  SUNNY      6  -7  54 N9        30.34S WCI  -8
ELY            SUNNY     10  -4  52 N5        30.26S WCI   2
CLOQUET        SUNNY     19   1  45 N7        30.22R WCI  10
WHEATON        FAIR      18   9  68 N15G21    30.25F WCI   3
BRAINERD       SUNNY     24   4  42 N8        30.23S WCI  15
HIBBING        SUNNY     16  -2  45 N12       30.25S WCI   3
ALEXANDRIA     PTSUNNY   25   8  48 NE16      30.19F WCI  12
SAINT CLOUD    MOSUNNY   29  14  53 NE9       30.19F WCI  20
MINNEAPOLIS    CLOUDY    28  18  66 NE9       30.19F WCI  19
$$

  *****  WEATHER ACROSS SOUTH DAKOTA  *****

CITY           SKY/WX    TMP DP  RH WIND       PRES   REMARKS
SIOUX FALLS    CLOUDY    27  24  89 E15       30.08F WCI  15
BROOKINGS      NOT AVBL
WATERTOWN      CLOUDY    17  14  88 NE18G24   30.13F WCI   1
HURON          CLOUDY    22  16  78 NE16      30.14F WCI   8
SISSETON         N/A     18   7  62 NE20      30.23F WCI   2
ABERDEEN       PTSUNNY   18   3  52 NE17      30.22F WCI   3
MITCHELL       CLOUDY    24  22  91 NE15      30.11F FOG     WCI  11
PIERRE         CLOUDY    20  17  88 NE20      30.10F WCI   4
MOBRIDGE       CLOUDY    20   9  62 E14G22    30.17S WCI   7
RAPID CITY     FOG       25  24  96 E10       29.99S VSB 1/4 WCI  15
$$

  *****  SOME WEATHER IN NEARBY STATES *****

CITY           SKY/WX    TMP DP  RH WIND       PRES   REMARKS
GLASGOW MT     LGT SNOW  12   6  77 E20       30.23S VSB 3/4 WCI  -6
GREAT FALLS MT LGT SNOW  16   9  73 N13       30.28S WCI   2
CHEYENNE WY    CLOUDY    36  28  73 CALM      29.80F
SCOTTSBLUFF NE SNOW      33  31  92 N3        29.86F VSB 1/2
OMAHA NE       LGT SNOW  33  32  96 S8        30.04F VSB 1
DES MOINES IA  LGT RAIN  38  35  89 SW8       30.12F
DAVENPORT IA   CLOUDY    34  32  92 SW7       30.17S FOG
CHICAGO IL     CLOUDY    34  24  67 W9        30.16S
EAU CLAIRE WI  CLOUDY    28  18  66 N6        30.18S WCI  22
LA CROSSE WI   CLOUDY    32  22  66 NW6       30.17S
$$

  *****  SOME NATIONAL WEATHER *****

CITY           SKY/WX    TMP DP  RH WIND       PRES   REMARKS
LA GUARDIA NY  MOSUNNY   26   1  34 NW28G35   30.09S WCI  10
RALEIGH NC     MOSUNNY   47   6  18 SW8       30.30F
ATLANTA GA     PTSUNNY   53  16  23 CALM      30.30F
NEW ORLEANS LA CLOUDY    59  46  62 E12       30.21F
OKLAHOMA CITY  LGT RAIN  43  37  81 SE15      29.98F FOG
ALBUQUERQUE NM CLOUDY    38  35  89 CALM      29.91F FOG
SALT LAKE CITY MOSUNNY   44  31  60 NW9       30.04F
LOS ANGELES CA MOSUNNY   65  53  65 S3        29.91F
BOISE ID       SUNNY     43  31  62 NW12      30.16F
SEATTLE WA     CLOUDY    41  39  93 N3        30.23R FOG
$$

*** WEATHER ACROSS MANITOBA...SASKATCHEWAN AND ONTARIO ***
                ***ONTARIO***

CITY           SKY/WX    TMP DP  RH WIND       PRES   REMARKS
GERALDTON      MOSUNNY   -8 -20  54 NW9G20    30.27  WCI -25
THUNDER BAY    MOSUNNY   10  -8  44 NW14      30.31S WCI  -5
SIOUX LOOKOUT  MOSUNNY   -8 -20  54 N7        30.38S WCI -22
TORONTO        CLOUDY    23  12  63 SW10      30.18F WCI  12
BIG TROUT LK   SUNNY    -18 -27  63 W13       30.35S WCI -41
PICKLE LAKE    CRYSTALS -11 -24  53 NW8       30.34R WCI -28
DRYDEN         SUNNY     -4 -17  54 N7        30.37F WCI -18
KENORA         MOSUNNY   -4 -17  54 N9        30.40S WCI -20
$$
                *** MANITOBA***

CITY           SKY/WX    TMP DP  RH WIND       PRES   REMARKS
BRANDON        MOSUNNY   -9 -18  64 NE12      30.53F WCI -29
DAUPHIN        SUNNY    -11 -22  58 N6        30.62F WCI -25
ISLAND LAKE    SUNNY    -17 -27  58 W12       30.49S WCI -38
PILOT MOUND      N/A    -11 -18  70 N14         N/A  WCI -33
THE PAS        MOSUNNY  -13 -24  58 NW8       30.64F WCI -30
THOMPSON       CRYSTALS -17 -29  52 W9        30.53S WCI -36
WINNIPEG       MOSUNNY   -9 -18  64 N15G21    30.57F WCI -31
LYNN LAKE      SUNNY    -17 -29  52 W9        30.50F WCI -36
CHURCHILL      MOSUNNY  -20 -27  69 NW21G30   30.34S BLWGSNOWWCI -49
GILLAM         SUNNY    -18 -29  57 W14G21    30.44R WCI -42
$$
                ***SASKATCHEWAN***

CITY           SKY/WX    TMP DP  RH WIND       PRES   REMARKS
ESTEVAN        CLOUDY     1  -8  66 NE14      30.40S WCI -17
KINDERSLEY     CLOUDY    -4  -9  77 NE7       30.49F WCI -18
LLOYDMINSTER   PTSUNNY   -4 -13  65 VRB3      30.52S
PRINCE ALBERT  PTSUNNY  -11 -22  58 CALM      30.63F
REGINA         CLOUDY     0 -11  60 NE6       30.48R WCI -12
YORKTON        SUNNY    -13 -20  70 N9        30.54F WCI -31
N. BATTLEFORD  MOSUNNY   -4 -11  71 E3        30.59F
LA RONGE       MOSUNNY  -13 -24  58 W7        30.64F WCI -29
SASKATOON      CLOUDY    -8 -15  71 E6        30.61F WCI -21
SWIFT CURRENT  PTSUNNY    0  -4  85 NE13      30.39R WCI -18
$$
NOTE: THESE ARE AUTOMATED STATIONS WITH LIMITED QUALITY CONTROL
      "FAIR" INDICATES FEW OR NO CLOUDS BELOW 12,000 FEET WITH NO
      SIGNIFICANT WEATHER AND/OR OBSTRUCTIONS TO VISIBILITY.
      SKY/WX - SKY CONDITION AND SIGNIFICANT WEATHER.
      TMP - AIR TEMPERATURE.    DP   - DEWPOINT TEMPERATURE.
      RH  - RELATIVE HUMIDITY.  PRES - PRESSURE.
      HX  - HEAT INDEX.         WCI  - WIND CHILL INDEX.
$


USA.gov is the U.S. government's official web portal to all federal, state and local government web resources and services.